Probability
39 26 45 42 42 35 42 39 39 35 39 42 48 52 52 48 48 45 48 48 42 45 48 48 48 45 48 45 42 52 58 52 55 55 58 68 71 71 71 71 77 71 77
32 19 45 42 42 32 32 35 35 35 32 32 42 48 48 48 52 48 39 39 39 39 39 39 39 39 39 52 52 48 45 52 58 58 61 61 74 74 74 71 74 81 77
19 19 29 32 29 29 29 26 32 32 32 35 32 32 35 39 32 32 32 32 32 39 45 42 45 45 45 45 45 42 45 39 35 58 65 48 77 81 81 74 74 77 77
19 16 19 29 32 35 39 29 29 29 32 29 29 29 32 29 29 23 23 26 35 32 35 35 39 35 39 35 35 35 35 42 42 48 39 35 45 77 87 81 71 71 68
16 16 19 23 23 29 26 26 26 23 23 23 26 26 29 32 32 29 23 23 26 26 32 26 39 32 39 35 32 26 35 45 42 35 16 23 19 61 65 77 81 74 71
16 19 19 29 23 16 19 23 23 26 16 16 19 16 23 16 16 26 23 26 29 26 23 23 32 29 26 29 19 29 23 35 35 13 16 19 23 48 48 58 61 71 74
16 23 19 26 23 19 23 23 23 23 19 10 10 13 19 19 19 19 19 23 26 23 23 16 19 23 19 23 16 16 26 39 6 10 6 13 16 39 32 39 48 58 68
13 19 23 23 23 26 26 26 19 23 16 0 0 10 10 16 16 23 23 16 19 19 16 10 13 10 19 16 23 10 16 23 3 3 3 6 19 32 35 39 42 42 55
13 16 16 10 16 19 19 16 16 13 13 10 3 10 10 10 6 13 16 16 16 13 10 6 6 13 16 19 13 10 13 23 3 0 3 10 29 23 26 29 29 39 32
10 13 16 10 6 6 10 13 16 13 10 6 10 6 10 13 10 13 6 13 13 13 6 6 13 23 19 16 13 13 13 0 0 3 3 13 35 29 29 23 35 35 29
10 10 13 16 3 6 3 3 10 16 10 3 3 3 3 0 0 3 3 3 6 6 3 3 10 13 13 16 16 19 6 3 0 0 3 16 35 26 23 26 29 32 23
10 10 10 10 6 6 0 0 0 0 3 3 0 0 0 0 0 3 3 13 6 3 3 3 6 13 10 0 0 16 0 0 0 3 0 26 19 26 26 23 19 23 29
6 10 10 10 10 0 3 3 3 3 3 3 0 0 0 0 0 0 0 0 3 3 0 3 3 3 3 0 0 3 0 0 0 0 3 23 19 19 23 23 19 16 19
3 10 10 10 10 6 3 0 6 3 3 0 0 0 0 0 0 0 0 0 0 0 0 0 3 3 0 0 0 0 0 0 0 0 0 19 16 23 19 19 19 10 13
6 10 6 10 10 10 6 6 0 3 3 0 0 0 0 0 0 0 0 0 0 0 0 0 0 0 0 0 0 0 0 0 0 0 0 6 6 10 16 10 6 10 6
3 3 10 6 10 6 6 6 6 0 0 0 0 0 0 0 0 0 0 0 0 0 0 0 0 0 0 0 0 0 0 0 0 0 0 0 10 6 13 13 13 13 6
0 3 10 10 10 6 3 0 3 3 3 3 0 0 0 0 0 0 0 0 0 0 0 0 0 0 0 0 0 0 0 0 0 0 0 0 0 3 6 10 10 6 13
0 3 3 10 10 10 6 0 0 0 0 0 0 0 0 0 0 0 0 0 0 0 0 0 0 0 0 0 0 0 0 0 0 0 0 0 0 0 3 13 13 10 3
3 3 10 13 10 10 3 6 0 0 0 0 0 0 0 0 0 0 0 0 0 0 0 0 0 0 0 0 0 0 0 0 0 0 0 0 0 0 0 3 3 10 10
0 3 3 10 6 10 3 3 3 0 0 0 0 0 0 0 0 0 0 0 0 0 0 0 0 0 0 0 0 0 0 0 0 0 0 0 0 0 0 0 0 0 3
0 0 6 10 6 6 6 10 6 10 6 3 3 3 0 0 0 0 0 0 0 0 0 0 0 0 0 0 0 0 0 0 0 0 0 0 0 0 0 0 0 0 0
3 0 3 6 6 10 13 13 10 10 10 13 10 6 0 3 3 0 0 0 0 0 0 0 0 0 0 0 0 0 0 0 0 0 0 0 0 0 0 0 0 0 0
3 0 0 3 10 10 13 13 13 10 10 10 6 6 6 0 6 6 3 0 3 0 0 0 0 0 0 0 0 0 0 0 0 0 0 0 0 0 0 0 0 0 0
3 3 3 0 6 6 6 13 13 13 6 6 3 10 13 10 3 3 0 0 0 0 0 0 0 0 0 0 0 0 0 0 0 0 0 0 0 0 0 0 0 0 0
3 3 3 3 0 6 6 6 10 10 10 10 3 3 3 6 6 3 0 0 0 0 0 0 0 0 0 0 0 0 0 0 0 0 0 0 0 0 0 0 0 0 0
3 3 3 3 6 3 3 10 6 6 6 3 6 10 10 3 3 3 0 0 0 0 0 0 0 0 0 0 0 0 0 0 0 0 0 0 0 0 0 0 0 0 0
Height
5879 5879 5879 5880 5880 5880 5880 5881 5881 5881 5881 5881 5881 5881 5880 5880 5880 5880 5880 5880 5880 5879 5879 5879 5879 5880 5880 5880 5880 5881 5881 5881 5882 5882 5882 5882 5882 5882 5883 5883 5883 5883 5884
5878 5878 5879 5879 5879 5879 5880 5880 5880 5880 5880 5880 5880 5880 5880 5880 5880 5880 5880 5879 5879 5879 5879 5879 5879 5879 5879 5880 5880 5880 5880 5881 5881 5881 5881 5881 5882 5882 5882 5882 5882 5883 5883
5877 5878 5878 5878 5878 5878 5879 5879 5879 5879 5879 5879 5879 5879 5879 5879 5879 5879 5879 5879 5879 5878 5878 5878 5878 5878 5878 5879 5879 5879 5880 5880 5880 5880 5881 5881 5881 5881 5881 5881 5882 5882 5882
5877 5877 5877 5877 5877 5878 5878 5878 5878 5878 5878 5878 5878 5877 5877 5877 5877 5877 5878 5878 5878 5877 5877 5877 5877 5877 5877 5878 5878 5878 5879 5879 5879 5879 5880 5880 5880 5880 5880 5880 5881 5881 5881
5876 5876 5876 5876 5876 5876 5876 5877 5877 5877 5877 5876 5876 5876 5876 5876 5876 5876 5876 5877 5877 5877 5876 5876 5876 5876 5877 5877 5877 5877 5877 5878 5878 5878 5879 5879 5879 5879 5879 5879 5880 5880 5880
5875 5875 5875 5875 5875 5875 5875 5876 5876 5875 5875 5875 5875 5875 5875 5875 5875 5875 5875 5875 5875 5876 5876 5875 5875 5875 5876 5876 5876 5876 5876 5876 5877 5877 5877 5878 5878 5878 5878 5878 5878 5879 5879
5874 5874 5874 5874 5874 5874 5874 5874 5874 5874 5874 5873 5873 5873 5873 5873 5873 5874 5874 5874 5874 5875 5875 5874 5874 5874 5874 5875 5875 5875 5875 5875 5875 5876 5876 5876 5877 5877 5876 5877 5877 5877 5878
5872 5872 5872 5872 5872 5872 5872 5873 5872 5872 5872 5872 5872 5872 5872 5872 5872 5873 5873 5873 5873 5873 5873 5873 5873 5873 5873 5873 5874 5874 5874 5874 5874 5875 5875 5875 5875 5875 5875 5875 5875 5876 5876
5871 5871 5871 5871 5871 5871 5871 5871 5871 5871 5870 5870 5870 5870 5870 5871 5871 5871 5871 5871 5872 5872 5872 5872 5872 5872 5872 5872 5872 5872 5873 5873 5873 5873 5873 5874 5873 5874 5874 5874 5874 5874 5874
5869 5870 5870 5869 5869 5869 5869 5869 5869 5869 5868 5868 5868 5868 5869 5869 5869 5870 5870 5870 5870 5870 5870 5870 5870 5870 5871 5871 5871 5871 5871 5871 5871 5872 5872 5872 5872 5872 5872 5872 5872 5872 5872
5867 5867 5868 5868 5867 5867 5867 5868 5868 5867 5867 5867 5866 5867 5867 5867 5868 5868 5868 5868 5868 5868 5868 5868 5868 5869 5869 5869 5869 5869 5869 5870 5870 5870 5870 5870 5870 5870 5870 5870 5870 5870 5870
5866 5866 5866 5866 5866 5866 5866 5866 5866 5866 5865 5865 5865 5865 5865 5865 5866 5866 5866 5866 5866 5867 5867 5867 5867 5867 5867 5868 5868 5868 5868 5868 5868 5868 5868 5868 5868 5868 5868 5868 5868 5868 5868
5865 5865 5864 5865 5864 5864 5864 5864 5864 5864 5864 5864 5864 5864 5864 5864 5864 5864 5864 5864 5865 5865 5865 5865 5865 5865 5866 5866 5866 5866 5866 5866 5866 5866 5866 5866 5866 5866 5866 5865 5865 5865 5865
5863 5863 5863 5863 5863 5863 5863 5863 5863 5863 5862 5862 5862 5862 5862 5862 5862 5862 5862 5863 5863 5863 5863 5863 5863 5864 5864 5864 5864 5864 5864 5864 5864 5864 5864 5864 5864 5864 5864 5863 5862 5862 5861
5862 5862 5862 5862 5862 5862 5862 5862 5861 5861 5861 5861 5861 5861 5861 5861 5861 5860 5860 5861 5861 5861 5861 5862 5861 5862 5862 5862 5862 5862 5862 5862 5862 5862 5862 5862 5862 5862 5861 5861 5860 5860 5859
5861 5861 5860 5861 5861 5861 5860 5860 5860 5860 5860 5860 5860 5859 5859 5859 5859 5859 5859 5859 5859 5859 5859 5859 5859 5859 5859 5859 5859 5859 5859 5859 5859 5860 5859 5859 5859 5859 5859 5859 5858 5858 5857
5860 5860 5859 5860 5860 5859 5859 5859 5859 5859 5859 5859 5858 5858 5858 5858 5857 5857 5857 5857 5857 5857 5857 5857 5857 5857 5857 5857 5857 5857 5857 5857 5856 5857 5857 5857 5857 5857 5856 5856 5856 5856 5855
5859 5859 5859 5858 5858 5858 5858 5858 5858 5858 5858 5858 5857 5857 5857 5857 5856 5856 5856 5856 5855 5855 5855 5855 5855 5855 5855 5854 5854 5854 5854 5854 5854 5854 5854 5854 5854 5854 5854 5854 5853 5853 5853
5858 5858 5857 5857 5857 5857 5857 5857 5857 5857 5857 5856 5856 5855 5855 5855 5855 5854 5854 5854 5854 5854 5853 5853 5853 5853 5852 5852 5852 5852 5851 5851 5851 5851 5851 5851 5851 5851 5851 5851 5851 5850 5850
5857 5856 5856 5856 5856 5856 5855 5855 5855 5855 5855 5855 5855 5854 5854 5853 5853 5853 5852 5852 5852 5852 5851 5851 5851 5850 5850 5849 5849 5849 5849 5848 5848 5848 5848 5848 5848 5848 5848 5847 5847 5847 5847
5855 5855 5854 5853 5854 5854 5854 5854 5854 5854 5854 5853 5853 5853 5852 5852 5851 5851 5851 5850 5850 5850 5849 5849 5848 5848 5847 5847 5846 5846 5846 5846 5846 5845 5845 5845 5845 5844 5844 5844 5844 5844 5844
5854 5853 5853 5852 5852 5852 5852 5852 5852 5852 5852 5852 5851 5851 5851 5850 5850 5849 5849 5849 5848 5848 5847 5847 5846 5846 5845 5844 5844 5844 5844 5844 5843 5842 5842 5842 5841 5841 5841 5841 5841 5840 5840
5852 5852 5851 5851 5851 5851 5851 5851 5851 5850 5850 5850 5850 5849 5849 5848 5848 5848 5847 5847 5846 5846 5845 5845 5844 5843 5843 5842 5841 5841 5841 5841 5840 5839 5839 5838 5838 5838 5838 5837 5837 5836 5836
5850 5850 5850 5850 5849 5849 5849 5849 5849 5849 5848 5848 5848 5847 5847 5847 5846 5846 5845 5845 5844 5844 5843 5842 5841 5841 5840 5839 5839 5838 5838 5837 5837 5836 5836 5835 5835 5835 5834 5834 5833 5832 5832
5848 5848 5848 5848 5848 5847 5847 5847 5847 5847 5846 5846 5846 5845 5845 5845 5844 5844 5843 5842 5842 5841 5840 5840 5839 5838 5838 5837 5836 5835 5835 5834 5834 5833 5833 5832 5831 5831 5830 5830 5829 5828 5828
5846 5846 5846 5846 5845 5845 5845 5845 5845 5845 5844 5844 5844 5843 5843 5843 5842 5841 5840 5840 5839 5838 5838 5837 5836 5835 5835 5834 5833 5832 5832 5831 5830 5829 5829 5828 5828 5827 5826 5825 5825 5824 5824
Wind_Speed
6 5 4 4 4 4 3 3 3 3 4 3 3 3 3 3 3 3 2 2 3 3 3 3 3 3 3 3 3 3 3 3 3 3 3 3 3 3 4 4 4 4 4
6 6 6 5 5 5 5 4 4 5 5 5 4 4 4 4 4 3 3 3 4 4 4 4 4 4 4 5 5 5 4 4 4 4 4 4 4 4 4 5 5 5 5
6 6 6 6 6 6 6 5 5 5 6 6 5 5 5 5 5 4 4 5 5 4 5 5 5 5 5 5 6 6 5 5 5 5 5 5 5 5 5 6 6 6 5
7 7 7 7 7 7 7 6 6 6 6 6 6 6 6 7 7 6 6 5 5 5 5 5 5 5 5 5 6 6 6 6 6 5 5 5 5 5 6 6 6 6 6
6 7 6 7 7 7 6 7 7 7 7 7 7 7 7 7 6 6 6 6 5 5 5 6 5 5 5 6 6 6 6 6 6 6 6 6 6 6 6 6 6 6 6
7 7 7 7 7 6 6 7 8 8 8 7 7 7 7 7 6 6 6 6 5 5 5 6 6 6 6 6 6 5 5 6 6 6 6 7 7 7 7 7 7 6 7
8 8 7 7 7 7 7 8 8 8 8 9 8 8 8 8 7 6 5 6 6 6 6 6 6 7 7 7 6 6 6 6 6 6 7 7 8 8 8 8 7 7 7
8 8 8 8 8 8 8 9 9 9 9 9 9 9 8 8 8 7 7 6 7 7 7 7 7 7 7 7 7 6 6 7 7 7 8 8 8 8 8 8 8 8 8
9 8 8 9 8 8 9 9 9 10 10 9 9 9 9 9 8 8 7 7 7 8 8 8 8 8 7 8 8 8 7 7 8 8 9 9 9 9 9 9 9 10 10
10 9 8 8 8 8 9 9 9 10 10 10 10 9 9 9 9 9 8 8 8 8 8 9 8 8 8 9 9 9 8 8 8 9 9 9 9 9 9 9 10 10 10
10 9 9 9 9 9 9 9 9 9 9 10 10 10 10 9 9 9 9 9 9 9 9 9 8 9 9 8 8 9 9 9 9 9 9 9 10 10 10 11 11 12 12
9 8 8 8 8 8 8 9 9 9 9 9 9 10 9 9 8 9 9 8 8 9 9 9 9 9 8 8 9 9 9 9 9 9 9 10 11 11 11 11 12 12 12
8 8 7 8 8 8 8 9 9 9 9 9 9 9 9 8 8 8 9 9 9 9 9 9 9 9 9 9 10 10 10 10 10 10 10 10 11 11 11 11 11 12 12
8 8 9 8 8 8 8 9 9 9 9 9 8 8 8 8 9 8 8 9 9 9 9 10 10 11 11 11 11 10 10 11 11 11 11 11 11 11 10 10 11 11 12
9 8 8 7 7 7 7 8 7 7 8 8 8 7 8 8 8 8 8 8 8 9 9 9 10 10 11 11 11 11 12 12 12 12 12 12 12 11 10 10 10 10 10
8 7 7 7 6 6 7 7 7 7 7 7 8 7 7 8 8 8 8 8 8 9 10 10 10 10 11 11 11 12 12 12 13 13 13 12 11 11 10 10 10 10 10
7 7 7 7 6 7 7 7 7 6 7 7 8 7 7 8 8 8 8 8 9 9 10 10 11 11 12 12 11 11 12 12 13 13 13 12 12 11 11 11 11 11 11
6 7 7 8 7 7 7 7 7 7 7 8 8 8 7 8 8 8 8 8 9 9 10 10 11 10 11 11 12 12 12 12 12 12 13 13 13 12 12 12 12 12 12
7 7 7 8 8 8 8 8 8 8 8 8 9 9 8 8 8 9 9 9 9 9 9 9 10 10 10 11 11 11 12 12 12 12 12 13 13 13 13 12 12 12 12
7 7 7 8 8 8 8 8 8 8 9 9 9 9 9 9 9 9 9 9 9 8 9 9 10 10 11 12 11 11 12 12 12 12 12 13 13 13 13 13 13 13 13
8 8 7 8 8 8 8 8 8 8 9 9 9 9 9 9 9 9 9 9 9 9 10 10 10 11 12 12 11 12 13 13 13 13 13 13 13 13 13 13 13 13 13
8 9 9 8 8 8 8 8 8 8 8 8 8 9 9 9 9 9 9 9 10 10 11 11 11 11 12 12 12 12 12 12 13 13 13 14 14 14 14 14 14 14 15
9 9 9 9 8 8 8 8 8 9 8 9 9 9 9 9 9 9 10 11 11 11 11 11 11 11 11 12 12 12 12 12 13 14 14 14 14 14 14 15 15 15 16
9 9 9 9 8 8 9 9 9 8 9 9 10 10 9 9 10 11 11 12 12 12 12 11 11 11 12 12 12 12 12 13 13 13 14 14 14 14 14 15 15 15 15
9 9 9 9 9 9 9 10 10 10 10 10 10 10 10 11 11 11 12 12 12 12 12 11 11 12 12 12 12 13 13 13 14 14 14 15 15 15 15 15 15 15 15
10 9 9 10 10 10 10 10 11 11 10 11 11 11 11 12 12 12 12 12 12 12 11 12 12 12 13 13 13 13 14 14 15 15 15 15 16 16 16 15 15 15 15
Wind_Direction
230 234 235 233 236 238 242 244 248 259 272 272 262 261 272 276 273 276 281 276 275 273 268 257 245 244 237 233 239 244 246 246 249 262 270 278 288 287 283 282 283 271 268
237 239 239 240 248 247 245 254 262 263 267 273 274 267 265 271 273 277 281 282 280 274 267 263 256 248 245 240 244 253 255 254 258 265 275 281 284 284 283 281 277 270 262
242 243 247 249 252 250 249 256 266 269 269 271 274 275 276 271 269 273 279 281 278 273 266 262 259 250 252 248 248 254 258 255 255 260 268 275 279 282 279 280 278 270 263
252 251 251 255 255 256 255 259 262 271 279 276 276 277 280 277 273 269 276 279 278 273 270 260 258 254 255 252 252 254 256 257 257 258 264 271 277 280 278 279 277 271 268
261 257 255 258 257 255 255 259 264 270 276 276 274 273 278 277 279 273 271 274 279 280 276 265 261 256 257 256 257 259 261 259 257 259 263 272 277 277 273 276 276 273 270
260 260 256 256 257 257 257 260 265 270 271 273 276 275 276 274 275 275 276 273 275 282 279 267 260 257 257 257 257 258 261 261 260 265 268 272 275 276 272 273 274 272 269
258 260 261 260 261 260 263 266 270 269 268 271 271 269 270 270 267 270 276 272 272 279 279 271 265 262 258 256 255 257 260 259 262 267 268 271 274 280 276 273 272 273 270
264 264 264 265 265 263 266 268 271 271 274 273 271 269 266 264 264 269 272 268 270 274 276 273 268 263 258 255 257 260 263 263 264 266 267 272 278 280 279 279 277 273 271
265 264 266 267 266 264 264 267 271 273 276 274 272 266 261 258 260 269 271 266 267 267 270 270 270 261 259 260 262 265 267 266 267 264 264 270 274 275 278 277 277 274 271
269 269 266 267 265 263 262 269 274 275 273 272 271 270 262 261 263 266 270 266 267 268 267 270 270 264 264 266 264 264 265 267 267 265 267 271 274 275 277 275 276 274 272
271 268 266 267 265 264 266 272 276 277 276 274 273 269 264 265 267 265 270 267 266 269 273 273 271 270 268 266 262 260 264 268 272 268 270 275 277 280 280 279 280 279 275
277 276 275 270 268 268 275 278 279 279 281 276 275 273 270 273 274 273 275 270 270 269 273 275 273 270 269 269 268 268 270 271 273 270 275 278 280 282 284 285 280 278 274
280 279 277 276 273 276 283 283 283 284 285 283 279 276 275 276 280 280 275 272 270 272 273 274 271 269 270 272 274 275 275 274 276 275 277 278 280 284 286 285 281 278 277
281 281 280 280 276 276 284 284 283 285 286 286 285 280 277 280 280 282 278 272 268 273 274 272 270 270 270 273 274 275 276 275 275 277 277 278 278 283 287 287 285 280 278
286 283 286 285 281 281 283 284 283 283 285 284 286 282 280 283 285 283 283 281 272 270 273 272 270 272 272 275 275 274 275 277 276 277 277 277 278 281 286 289 288 287 283
287 287 287 289 289 288 292 288 286 284 283 283 282 283 285 284 284 281 278 281 281 274 276 274 271 274 272 273 276 277 278 279 277 277 277 277 276 277 280 283 285 286 281
290 287 287 285 289 295 296 298 296 291 290 290 292 290 288 286 283 281 284 285 286 286 283 281 280 279 277 275 277 279 281 281 280 280 278 275 275 277 276 278 281 282 284
296 289 285 284 284 289 292 295 293 293 292 292 293 295 292 291 291 288 289 287 287 289 288 286 283 285 281 277 278 280 282 282 283 281 280 279 278 278 276 277 280 280 283
296 296 291 289 284 283 290 292 291 293 291 293 293 296 296 294 294 293 293 292 292 292 290 289 290 289 288 281 280 281 282 286 285 287 287 285 282 280 279 279 282 282 279
293 294 293 287 286 285 291 291 291 293 290 290 293 295 296 297 298 297 295 292 294 298 298 294 292 289 290 287 282 284 286 289 289 289 289 289 287 283 283 283 285 285 284
291 293 290 285 285 287 293 295 293 293 291 291 292 296 299 300 298 297 297 298 301 303 303 298 295 296 295 290 290 292 291 290 288 288 288 290 289 286 285 284 285 284 284
284 288 291 292 290 287 291 295 295 292 290 292 293 296 296 298 301 299 301 302 302 302 303 304 303 302 301 298 298 295 292 289 289 288 289 289 288 285 285 286 286 285 283
289 291 291 289 288 290 292 292 296 292 291 293 294 297 297 298 302 302 303 301 299 298 300 303 304 303 302 302 299 296 293 290 290 287 288 289 288 287 285 285 286 286 286
291 291 289 290 291 292 293 295 298 297 297 297 298 297 297 299 301 301 299 299 299 297 299 301 301 303 303 302 299 296 294 294 293 291 289 289 289 288 286 286 286 286 286
285 288 286 289 290 288 288 291 296 297 295 297 298 296 296 297 298 299 300 299 298 297 298 301 302 302 302 301 298 297 296 296 295 293 293 292 291 290 289 288 287 287 288
281 283 284 287 290 291 290 290 293 294 295 296 295 294 295 297 298 300 302 302 300 298 298 299 299 300 300 298 298 295 294 294 294 294 293 294 293 293 292 290 289 289 289